Regional Weather Roundup
Issued by NWS

Home | Current Version | Previous Version | Graphics & Text | Print | Product List | Glossary Off
Versions: 1 2 3 4 5 6 7 8 9 10 11 12 13 14 15 16 17 18 19 20 21 22 23 24 25 26 27 28 29 30 31 32 33 34 35 36 37 38 39 40 41 42 43 44 45 46 47 48 49 50

000
ASUS43 KMPX 260401
RWRMN
WEATHER ROUNDUP FOR MINNESOTA
NATIONAL WEATHER SERVICE TWIN CITIES/CHANHASSEN MN
1100 PM CDT SUN JUN 25 2017


NOTE: "FAIR" INDICATES FEW OR NO CLOUDS BELOW 12,000 FEET WITH NO
SIGNIFICANT WEATHER AND/OR OBSTRUCTIONS TO VISIBILITY. N/A MEANS
CURRENT SKY AND/OR WEATHER CONDITIONS ARE NOT AVAILABLE.

MNZ060>063-068>070-260500-
   Twin Cities Metro

CITY           SKY/WX    TMP DP  RH WIND       PRES   REMARKS
TWIN CITIES    MOCLDY    60  43  53 W8        30.13S
ST PAUL        PTCLDY    59  41  51 W5        30.13S
CRYSTAL        PTCLDY    58  41  53 W5        30.12R
BLAINE         PTCLDY    57  45  62 N5        30.13S
LAKEVILLE      PTCLDY    55  45  67 W5        30.14S
EDEN PRAIRIE   CLEAR     60  45  57 W7        30.12F
SOUTH ST PAUL  PTCLDY    59  41  51 W5        30.12S
LAKE ELMO      CLOUDY    55  45  67 CALM      30.13S
$$
MNZ001>005-007-008-013>017-022>024-027-028-260500-
   Northwest Minnesota

CITY           SKY/WX    TMP DP  RH WIND       PRES   REMARKS
BEMIDJI        CLEAR     44  41  88 W6        30.17S
HALLOCK        CLEAR     50  45  81 NW5       30.19S
ROSEAU         CLEAR     50  45  81 W5        30.18R
WARROAD        CLEAR     48  45  87 W5        30.17S
CROOKSTON      CLEAR     54  45  71 N3        30.21R
FOSSTON        CLEAR     45  39  81 CALM      30.19S
DETROIT LAKES  CLEAR     52  45  76 NW3       30.19S
MOORHEAD       CLEAR     52  41  66 N3        30.21R
PARK RAPIDS    CLEAR     47  40  76 NW7       30.16S
MAHNOMEN       FAIR      51  44  77 N3        30.18S
$$
MNZ006-009>011-018-025>026-260500-
   North Central Minnesota

CITY           SKY/WX    TMP DP  RH WIND       PRES   REMARKS
BAUDETTE       MOCLDY    48  45  89 W5        30.15R
FLAG ISLAND    CLEAR     54  45  71 W8        30.14S
INTL FALLS     PTCLDY    46  43  89 NW6       30.13S
WASKISH        CLEAR     43  41  93 CALM      30.16S
BIG FORK       FOG       45  43  93 CALM      30.14S VSB 1
LONGVILLE      CLEAR     48  45  87 CALM      30.15S
GRAND RAPIDS   PTCLDY    47  46  97 CALM      30.15S
CRANE LAKE     CLOUDY    43  43 100 CALM      30.13F
ORR            CLEAR     43  39  87 CALM      30.11S
COOK           CLEAR     43  41  93 CALM      30.13S
WALKER         FAIR      45  42  91 NW5       30.16S
$$
MNZ012-019>021-037-260500-
   Northeast Minnesota

CITY           SKY/WX    TMP DP  RH WIND       PRES   REMARKS
DULUTH         PTCLDY    46  44  93 N8        30.10S
ELY            LGT RAIN  46  45  93 CALM      30.11S
HIBBING        CLEAR     42  42 100 NW3       30.12S
EVELETH        CLEAR     44  40  88 NW5       30.13S
DULUTH HARBOR  CLEAR     54  46  76 NW10      30.11S
TWO HARBORS    CLEAR     50  45  81 CALM      30.08R
SILVER BAY     CLOUDY    50  46  87 N6        30.07S
GRAND MARAIS     N/A     49  46  90 N12G25    30.03S
G MARAIS ARPRT RAIN      43  39  87 NW10      30.06S
$$
MNZ029>031-032-039>041-046>048-054>057-064-260500-
   West Central Minnesota

CITY           SKY/WX    TMP DP  RH WIND       PRES   REMARKS
FERGUS FALLS   CLEAR     54  43  66 N3        30.17R
WHEATON        CLEAR     52  48  87 CALM      30.20S
MORRIS         CLEAR     54  52  94 NW6       30.17S
ALEXANDRIA     MOCLDY    55  44  66 NW6       30.18R
ELBOW LAKE     FAIR      52  51  95 NW3       30.19R
WADENA         CLEAR     48  43  81 N5        30.17S
GLENWOOD       PTCLDY    54  46  76 W7        30.17S
APPLETON       MOCLDY    54  46  76 W5        30.17S
BENSON         CLOUDY    52  48  87 N3        30.19S
ORTONVILLE     CLEAR     55  46  71 W3        30.18S
MADISON        CLOUDY    57  50  77 W3        30.19S
WILLMAR        MOCLDY    57  50  77 W3        30.18S
$$
MNZ033>034-036-042>043-049>051-058-059-260500-
   Central Minnesota

CITY           SKY/WX    TMP DP  RH WIND       PRES   REMARKS
ST CLOUD       CLEAR     54  43  66 N5        30.15R
SAUK CENTRE    FAIR      52  45  77 W3        30.16S
PAYNESVILLE    CLEAR     52  45  75 W3        30.17S
AITKIN         MOCLDY    46  45  93 CALM      30.13S
PINE RIVER     CLEAR     52  45  76 NW3       30.18S
BRAINERD       CLEAR     52  42  69 CALM      30.15S
STAPLES        CLEAR     48  45  87 CALM      30.17R
LITTLE FALLS   CLEAR     50  41  71 CALM      30.16S
LITCHFIELD     CLEAR     61  48  63 NW6       30.16S
BUFFALO        PTCLDY    58  46  65 W5        30.15S
MAPLE LAKE     PTCLDY    58  46  64 W3        30.15S
HUTCHINSON     PTCLDY    57  49  76 W7        30.17S
$$
MNZ037-044-045-052-053-260500-
   East Central Minnesota

CITY           SKY/WX    TMP DP  RH WIND       PRES   REMARKS
PRINCETON      MOCLDY    52  45  76 CALM      30.15R
MORA           CLEAR     50  43  76 NW5       30.15S
CAMBRIDGE      PTCLDY    52  41  66 CALM      30.12S
RUSH CITY      MOCLDY    50  45  81 CALM      30.13S
MOOSE LAKE     CLEAR     45  43  93 CALM      30.11S
HINCKLEY       FAIR      48  45  87 N5        30.13S
CLOQUET        CLEAR     46  43  87 NW5       30.12S
MCGREGOR       MOCLDY    50  45  81 NW5       30.14S
$$
MNZ071>073-080-081-089-090-097-098-260500-
   Southwest Minnesota

CITY           SKY/WX    TMP DP  RH WIND       PRES   REMARKS
MONTEVIDEO     CLOUDY    57  48  72 W3        30.18S
GRANITE FALLS  CLOUDY    58  50  73 CALM      30.20R
CANBY          MOCLDY    54  48  81 CALM      30.21R
MARSHALL       PTCLDY    53  48  83 W7        30.19R
REDWOOD FALLS  PTCLDY    55  48  77 CALM      30.18R
OLIVIA         MOCLDY    54  50  87 CALM      30.17S
PIPESTONE      CLOUDY    59  48  67 NW8       30.22R
WINDOM         CLOUDY    57  46  67 W5        30.19R
WORTHINGTON    LGT RAIN  55  50  83 N8        30.20S
JACKSON        MOCLDY    54  48  82 CALM      30.19F
SLAYTON        LGT RAIN  54  49  82 NW8       30.21R
$$
MNZ065>067-074>077-082>085-091>093-260500-
   South Central Minnesota

CITY           SKY/WX    TMP DP  RH WIND       PRES   REMARKS
MANKATO        PTCLDY    57  47  69 W6        30.16S
NEW ULM        PTCLDY    54  45  71 W3        30.16F
ST JAMES       MOCLDY    57  45  62 W6        30.18S
FAIRMONT       CLOUDY    60  45  57 W8        30.18S
GLENCOE        CLOUDY    60  50  69 W6        30.15S
FARIBAULT      PTCLDY    57  46  67 W6        30.14F
OWATONNA       CLEAR     55  46  71 W7        30.15F
WASECA         CLOUDY    54  46  76 SW5       30.16F
ALBERT LEA     PTCLDY    57  45  62 W3        30.16F
$$
MNZ078>079-086>088-094>096-260500-
   Southeast Minnesota

CITY           SKY/WX    TMP DP  RH WIND       PRES   REMARKS
ROCHESTER      CLOUDY    57  43  59 W10       30.15S
RED WING       CLEAR     52  45  76 CALM      30.11S
STANTON        PTCLDY    58  44  58 W5        30.12F
DODGE CENTER   PTCLDY    57  43  58 W7        30.14F
WINONA         CLEAR     55  48  76 NW3       30.12S
AUSTIN         MOCLDY    57  43  58 W3        30.15F
PRESTON        MOCLDY    53  42  67 W7        30.15S
$$
ABBREVIATIONS USED IN REMARKS
   TC - TEMPERATURES IN CELSIUS
  WCI - WIND CHILL INDEX
   HX - HEAT INDEX
  VSB - VISIBILITY
$$



USA.gov is the U.S. government's official web portal to all federal, state and local government web resources and services.